Regional Weather Roundup
Issued by NWS

Home | Current Version | Previous Version | Text Only | Print | Product List | Glossary Off
Versions: 1 2 3 4 5 6 7 8 9 10 11 12 13 14 15 16 17 18 19 20 21 22 23 24 25 26 27 28 29 30 31 32 33 34 35 36 37 38 39 40 41 42 43 44 45 46 47 48 49 50

000
ASUS43 KMKX 310511
RWRWI

WISCONSIN REGIONAL WEATHER ROUNDUP
NATIONAL WEATHER SERVICE MILWAUKEE/SULLIVAN WI
1200 AM CDT THU JUL 31 2014

NOTE: "FAIR" INDICATES FEW OR NO CLOUDS BELOW 12,000 FEET WITH NO
SIGNIFICANT WEATHER AND/OR OBSTRUCTIONS TO VISIBILITY.

WIZ001-002-006>008-014>016-023>028-310600-
NORTHWEST WISCONSIN

CITY           SKY/WX    TMP DP  RH WIND       PRES   REMARKS
SUPERIOR ARPT  CLEAR     65  58  79 NW8       29.98S
ASHLAND        MOCLDY    62  60  93 W3        29.98S
HAYWARD        LGT RAIN  64  61  90 CALM      30.01S
SIREN          CLEAR     62  56  81 W3        30.02S
RICE LAKE      CLEAR     59  58  95 CALM      30.03S FOG
LADYSMITH      PTCLDY    61  59  94 CALM      30.03S
EAU CLAIRE     CLEAR     62  60  93 SW5       30.01S
MENOMONIE      CLEAR     65  57  76 W5        30.03R
NEW RICHMOND   CLEAR     61  56  82 W5        30.04S
OSCEOLA        CLEAR     60  59  97 CALM      30.05S
$$

WIZ003>005-009-010-017-018-310600-
NORTH CENTRAL WISCONSIN

CITY           SKY/WX    TMP DP  RH WIND       PRES   REMARKS
WOODRUFF       PTCLDY    57  50  77 CALM      30.00S
RHINELANDER    PTCLDY    53  52  96 CALM      30.01S
EAGLE RIVER    FOG       50  50 100 CALM      30.00S VSB 1/4
LAND O LAKES   FOG       52  52 100 CALM      30.01S VSB 3/4
PHILLIPS       MOCLDY    59  58  97 CALM      30.01R
TOMAHAWK       FOG       51  50  97 CALM      30.01S VSB 1/2
MEDFORD        LGT RAIN  60  58  95 W8        30.01F
MERRILL        PTCLDY    55  55 100 CALM      30.00S FOG
$$

WIZ029-030-035-036-043>047-310600-
CENTRAL WISCONSIN

CITY           SKY/WX    TMP DP  RH WIND       PRES   REMARKS
WAUSAU         MOCLDY    62  58  86 NW8       30.00R
MOSINEE        DRIZZLE   61  59  94 W8        30.02R
MARSHFIELD     CLOUDY    62  59  90 NE5       30.03R
STEVENS POINT  CLOUDY    62  56  83 W6        30.02R
WAUPACA        PTCLDY    62  58  86 W3        30.00S
WAUTOMA        MOCLDY    62  56  81 CALM      30.01R
WISC RAPIDS    LGT RAIN  63  59  87 NW9       30.04R
CAMP DOUGLAS   MOCLDY    64  63  97 W5        30.03R
$$

WIZ011>013-019>022-031-037>040-048>050-310600-
NORTHEAST WISCONSIN

CITY           SKY/WX    TMP DP  RH WIND       PRES   REMARKS
ANTIGO         CLEAR     52  51  97 CALM      30.01S
STURGEON BAY   MOCLDY    61  55  82 W7        29.97S
GREEN BAY      PTCLDY    59  58  96 SW6       29.98S
MANITOWOC      CLOUDY    61  57  87 W5        29.98F
APPLETON       PTCLDY    59  55  88 CALM      30.00S
CLINTONVILLE   CLEAR     55  54  94 CALM      29.99S
OSHKOSH        PTCLDY    64  55  72 CALM      30.00R
$$

WIZ032>034-041-042-053>061-310600-
SOUTHWEST WISCONSIN

CITY           SKY/WX    TMP DP  RH WIND       PRES   REMARKS
LA CROSSE      CLEAR     67  62  84 SE3       30.02S
SPARTA         PTCLDY    61  60  96 CALM      30.03S
VIROQUA        FAIR      62  61  96 SW6       30.05S
BOSCOBEL       CLEAR     62  60  93 SW3       30.04S
PRAIRIE DU CHI CLEAR     62  59  88 CALM      30.04S
PLATTEVILLE    FAIR      64  58  81 SW6       30.06S
$$

WIZ056-057-062-063-064-067-068-310600-
SOUTH CENTRAL WISCONSIN

CITY           SKY/WX    TMP DP  RH WIND       PRES   REMARKS
BARABOO/DELLS  PTCLDY    62  53  72 CALM      30.03S
LONE ROCK      PTCLDY    63  56  78 CALM      30.03S
WATERTOWN      CLEAR     59  55  85 SW3       30.01F
MADISON        CLEAR     62  54  74 CALM      30.03S
MIDDLETON      FAIR      60  54  78 CALM      30.03F
MONROE         CLEAR     63  54  72 W8        30.05S
JANESVILLE     CLEAR     61  55  82 CALM      30.03F
$$

WIZ051-052-058>065-066-070>072-310600-
SOUTHEAST WISCONSIN

CITY           SKY/WX    TMP DP  RH WIND       PRES   REMARKS
MILWAUKEE      MOCLDY    61  54  77 SW7       30.02S
WAUKESHA       CLEAR     57  52  82 SW3       30.03S
MILWAUKEE/TIMM CLEAR     59  54  82 SW5       30.02F
RACINE         CLEAR     59  54  83 SW6       30.04S
BURLINGTON     CLEAR     52  52  98 CALM      30.03S
KENOSHA        CLEAR     55  54  96 SW6       30.03F
FOND DU LAC    CLOUDY    63  56  78 NE9       30.01R
SHEBOYGAN      MOCLDY    58  56  93 CALM      30.00R
WEST BEND      PTCLDY    61  54  77 CALM      30.01R
JUNEAU         CLOUDY    59  54  82 CALM      30.02F
$$

LSZ147-162-310600-
LAKE SUPERIOR

STATION/POSITION TIME  TEMP    WIND        PRES    WAVE
                       AIR SEA DIR/SP/G            HT/PER
                 (UTC) (F)     (DEG/KT/KT) (MB)    (FT/S)
W MID LAKE BUOY  0450   50 42  290/  4/  4 1014.5S   1
PORT WING        0400   64     190/  2/  3 1014.9
SAXON HARBOR     0440          190/  3/  5 1014.9S
$$

LMZ867-665-643>646-310600-
LAKE MICHIGAN

STATION/POSITION TIME  TEMP    WIND        PRES    WAVE
                       AIR SEA DIR/SP/G            HT/PER
                 (UTC) (F)     (DEG/KT/KT) (MB)    (FT/S)
N MID LAKE BUOY  0450   57 54  230/  8/ 10 1014.0R   1/ 3
NORTHPORT PIER   0400   58     210/  4/  5 1014.6S
SISTER BAY       0410   59        CALM       N/A
ALGOMA LAKESHORE 0421          280/  6/  7   N/A
KEWAUNEE LAKESHO 0400   62      CALM  /  4 1014.4F
SHEBOYGAN LAKESH 0500   63     260/  7/  9 1016.0R
PORT WASHINGTON  0400   62     240/  2/  4 1016.6S
ATWATER BUOY     0400   64     200/  8     1017.4R
MILWAUKEE LAKESH 0400   64     230/  8/ 10   N/A
S MID LAKE BUOY  0450   61 60  180/  4/  6 1016.7F   0
KENOSHA   LAKESH 0400   62     200/  5/  8 1016.6S
$$

TC  - TEMPERATURE IN CELSIUS
VSB - VISIBILITY IN STATUTE MILES
WCI - WIND CHILL INDEX
HX  - HEAT INDEX




USA.gov is the U.S. government's official web portal to all federal, state and local government web resources and services.